^^
Saratoga-Weather Station Historical Data
Daily Summary for May 13, 2022 Units:  English    Metric   Both
Daily Weekly Monthly Yearly Custom
  High: Low: Average:
Temperature: 70 °F 52.5 °F 61 °F
Dew Point: 51.8 °F 42.6 °F 46.4 °F
Humidity: 79% 42% 60%
Wind Speed: 14mph 0mph 3.7mph
Wind Gust: 16mph - -
Wind- - West
Pressure: 30.2 in 30.1 in -
Precipitation: 0 in    
Historical Graphs
 
 
Tabular Data for May 13, 2022
Time Temperature Dew Point Pressure Wind Wind Speed Wind Gust Humidity Rainfall Rate (Hourly) solar
00:04 60.4 °F 51.8 °F 30.1 in WNW 0.9 mph 3 mph 73% 0 in 0 W/m2
00:09 60.3 °F 51.6 °F 30.1 in WNW 2 mph 3 mph 73% 0 in 0 W/m2
00:14 60.1 °F 51.4 °F 30.1 in WNW 2 mph 2 mph 73% 0 in 0 W/m2
00:19 60.1 °F 51.4 °F 30.1 in WNW 0.9 mph 3 mph 73% 0 in 0 W/m2
00:24 59.9 °F 51.3 °F 30.1 in Calm   1 mph 73% 0 in 0 W/m2
00:29 59.7 °F 51.4 °F 30.1 in Calm   3 mph 74% 0 in 0 W/m2
00:34 59.7 °F 51.4 °F 30.1 in Calm     74% 0 in 0 W/m2
00:39 59.5 °F 51.3 °F 30.1 in Calm     74% 0 in 0 W/m2
00:44 59.5 °F 51.6 °F 30.1 in Calm     75% 0 in 0 W/m2
00:49 59.4 °F 51.4 °F 30.1 in Calm   1 mph 75% 0 in 0 W/m2
00:54 59.4 °F 51.8 °F 30.1 in Calm     76% 0 in 0 W/m2
00:59 59.2 °F 51.6 °F 30.1 in Calm     76% 0 in 0 W/m2
01:04 58.8 °F 51.6 °F 30.1 in Calm     77% 0 in 0 W/m2
01:09 58.8 °F 51.6 °F 30.1 in Calm   1 mph 77% 0 in 0 W/m2
01:14 58.8 °F 51.6 °F 30.1 in WNW 0.9 mph 2 mph 77% 0 in 0 W/m2
01:19 58.8 °F 51.3 °F 30.1 in West 2.9 mph 3 mph 76% 0 in 0 W/m2
01:24 58.8 °F 51.3 °F 30.1 in WSW 0.9 mph 3 mph 76% 0 in 0 W/m2
01:29 58.8 °F 51.3 °F 30.1 in WSW 0.9 mph 2 mph 76% 0 in 0 W/m2
01:34 58.8 °F 51.3 °F 30.1 in WSW 0.9 mph 3 mph 76% 0 in 0 W/m2
01:39 58.8 °F 51.3 °F 30.1 in WSW 0.9 mph 3 mph 76% 0 in 0 W/m2
01:44 58.6 °F 51.1 °F 30.1 in WSW 0.9 mph 2 mph 76% 0 in 0 W/m2
01:49 58.5 °F 50.9 °F 30.1 in WSW 0.9 mph 3 mph 76% 0 in 0 W/m2
01:54 58.3 °F 50.7 °F 30.1 in WSW 2 mph 3 mph 76% 0 in 0 W/m2
01:59 58.3 °F 51.1 °F 30.1 in West 2 mph 2 mph 77% 0 in 0 W/m2
02:04 58.3 °F 50.7 °F 30.1 in West 0.9 mph 1 mph 76% 0 in 0 W/m2
02:09 58.3 °F 50.7 °F 30.1 in Calm     76% 0 in 0 W/m2
02:14 58.1 °F 50.5 °F 30.1 in Calm   1 mph 76% 0 in 0 W/m2
02:19 57.9 °F 50.4 °F 30.1 in West 2 mph 2 mph 76% 0 in 0 W/m2
02:24 57.9 °F 50.4 °F 30.1 in WNW 2 mph 3 mph 76% 0 in 0 W/m2
02:29 57.9 °F 50.4 °F 30.1 in WNW 0.9 mph 2 mph 76% 0 in 0 W/m2
02:34 57.9 °F 50.4 °F 30.1 in WNW 2 mph 2 mph 76% 0 in 0 W/m2
02:39 57.9 °F 50.4 °F 30.1 in WNW 0.9 mph 2 mph 76% 0 in 0 W/m2
02:44 57.9 °F 50.4 °F 30.1 in WNW 0.9 mph 2 mph 76% 0 in 0 W/m2
02:49 57.7 °F 50.2 °F 30.1 in West 0.9 mph 2 mph 76% 0 in 0 W/m2
02:54 57.7 °F 50.2 °F 30.1 in Calm   1 mph 76% 0 in 0 W/m2
02:59 57.6 °F 50 °F 30.1 in WSW 2 mph 3 mph 76% 0 in 0 W/m2
03:04 57.4 °F 49.8 °F 30.1 in West 2 mph 2 mph 76% 0 in 0 W/m2
03:09 57.2 °F 49.6 °F 30.1 in Calm   1 mph 76% 0 in 0 W/m2
03:14 57 °F 49.5 °F 30.1 in West 2 mph 2 mph 76% 0 in 0 W/m2
03:19 56.8 °F 49.3 °F 30.1 in West 2 mph 2 mph 76% 0 in 0 W/m2
03:24 56.8 °F 49.6 °F 30.1 in West 2 mph 3 mph 77% 0 in 0 W/m2
03:29 56.7 °F 49.8 °F 30.1 in West 0.9 mph 2 mph 78% 0 in 0 W/m2
03:34 56.5 °F 49.6 °F 30.1 in West 2 mph 3 mph 78% 0 in 0 W/m2
03:39 56.1 °F 49.6 °F 30.1 in West 2 mph 4 mph 79% 0 in 0 W/m2
03:44 56.1 °F 49.6 °F 30.1 in West 2 mph 4 mph 79% 0 in 0 W/m2
03:49 56.1 °F 49.3 °F 30.1 in West 2.9 mph 6 mph 78% 0 in 0 W/m2
03:54 56.1 °F 49.3 °F 30.1 in West 2.9 mph 3 mph 78% 0 in 0 W/m2
03:59 56.1 °F 48.7 °F 30.1 in WSW 2 mph 6 mph 76% 0 in 0 W/m2
04:04 56.1 °F 48.7 °F 30.1 in West 2.9 mph 4 mph 76% 0 in 0 W/m2
04:09 55.9 °F 48.6 °F 30.1 in WSW 4.9 mph 6 mph 76% 0 in 0 W/m2
04:14 55.9 °F 48.6 °F 30.1 in West 2.9 mph 4 mph 76% 0 in 0 W/m2
04:19 55.8 °F 48 °F 30.1 in West 2 mph 3 mph 75% 0 in 0 W/m2
04:24 55.8 °F 48.4 °F 30.1 in West 2.9 mph 4 mph 76% 0 in 0 W/m2
04:29 55.8 °F 48.4 °F 30.1 in West 4 mph 9 mph 76% 0 in 0 W/m2
04:34 55.9 °F 48.2 °F 30.1 in WSW 6.9 mph 9 mph 75% 0 in 0 W/m2
04:39 55.9 °F 48.2 °F 30.1 in West 6 mph 8 mph 75% 0 in 0 W/m2
04:44 55.8 °F 48 °F 30.1 in West 6.9 mph 8 mph 75% 0 in 0 W/m2
04:49 55.6 °F 47.1 °F 30.1 in WSW 8.1 mph 10 mph 73% 0 in 0 W/m2
04:54 55.4 °F 46.6 °F 30.1 in NNW 8.1 mph 13 mph 72% 0 in 0 W/m2
04:59 55.2 °F 46.8 °F 30.1 in West 4 mph 8 mph 73% 0 in 0 W/m2
05:04 55 °F 46.2 °F 30.1 in WNW 8.1 mph 13 mph 72% 0 in 0 W/m2
05:09 54.7 °F 45.9 °F 30.1 in WSW 8.1 mph 9 mph 72% 0 in 0 W/m2
05:14 54.3 °F 45.5 °F 30.1 in WNW 2.9 mph 11 mph 72% 0 in 0 W/m2
05:19 54.1 °F 45.7 °F 30.1 in WNW 4 mph 7 mph 73% 0 in 0 W/m2
05:24 54 °F 45.5 °F 30.1 in West 2.9 mph 7 mph 73% 0 in 0 W/m2
05:29 53.6 °F 45.1 °F 30.1 in WSW 4.9 mph 8 mph 73% 0 in 0 W/m2
05:34 53.2 °F 44.8 °F 30.1 in WNW 4 mph 8 mph 73% 0 in 0 W/m2
05:39 53.2 °F 45.1 °F 30.1 in West 4 mph 7 mph 74% 0 in 0 W/m2
05:44 53.1 °F 45 °F 30.1 in West 6.9 mph 7 mph 74% 0 in 0 W/m2
05:49 52.9 °F 44.8 °F 30.1 in WNW 2.9 mph 6 mph 74% 0 in 0 W/m2
05:54 52.7 °F 44.6 °F 30.1 in WNW 2.9 mph 5 mph 74% 0 in 5 W/m2
05:59 52.5 °F 44.4 °F 30.1 in WSW 4 mph 7 mph 74% 0 in 5 W/m2
06:04 52.5 °F 44.4 °F 30.1 in West 2 mph 7 mph 74% 0 in 7 W/m2
06:09 52.5 °F 44.1 °F 30.1 in WSW 6 mph 7 mph 73% 0 in 11 W/m2
06:14 52.5 °F 44.1 °F 30.1 in West 6 mph 8 mph 73% 0 in 12 W/m2
06:19 52.5 °F 44.1 °F 30.1 in WNW 2 mph 7 mph 73% 0 in 14 W/m2
06:29 52.7 °F 44.2 °F 30.1 in WSW 4 mph 5 mph 73% 0 in 19 W/m2
06:34 52.9 °F 44.4 °F 30.1 in WSW 4.9 mph 7 mph 73% 0 in 19 W/m2
06:39 52.9 °F 44.4 °F 30.1 in West 6.9 mph 8 mph 73% 0 in 19 W/m2
06:45 52.9 °F 44.4 °F 30.1 in West 6.9 mph 7 mph 73% 0 in 21 W/m2
06:50 52.7 °F 44.2 °F 30.1 in West 4 mph 6 mph 73% 0 in 28 W/m2
06:55 52.7 °F 44.2 °F 30.1 in West 2.9 mph 7 mph 73% 0 in 30 W/m2
07:00 52.9 °F 44.8 °F 30.1 in NW 2.9 mph 4 mph 74% 0 in 32 W/m2
07:05 52.9 °F 44.4 °F 30.1 in NW 2.9 mph 7 mph 73% 0 in 35 W/m2
07:10 52.9 °F 44.4 °F 30.1 in WNW 4.9 mph 7 mph 73% 0 in 40 W/m2
07:15 52.9 °F 44.8 °F 30.1 in WNW 4 mph 8 mph 74% 0 in 44 W/m2
07:20 52.9 °F 44.8 °F 30.1 in West 4 mph 9 mph 74% 0 in 40 W/m2
07:25 52.9 °F 45.5 °F 30.1 in West 2.9 mph 7 mph 76% 0 in 58 W/m2
07:30 52.7 °F 45.3 °F 30.1 in West 6 mph 6 mph 76% 0 in 56 W/m2
07:40 52.5 °F 45.5 °F 30.1 in West 2 mph 3 mph 77% 0 in 46 W/m2
07:45 52.5 °F 45.1 °F 30.1 in West 2.9 mph 8 mph 76% 0 in 47 W/m2
07:50 52.5 °F 45.1 °F 30.1 in West 2.9 mph 4 mph 76% 0 in 54 W/m2
07:55 52.5 °F 45.1 °F 30.1 in West 2.9 mph 7 mph 76% 0 in 47 W/m2
08:00 52.9 °F 45.1 °F 30.1 in West 2 mph 7 mph 75% 0 in 163 W/m2
08:05 53.1 °F 45 °F 30.1 in NNW 4.9 mph 6 mph 74% 0 in 84 W/m2
08:10 53.2 °F 44.4 °F 30.1 in WNW 2.9 mph 6 mph 72% 0 in 84 W/m2
08:15 53.4 °F 43.9 °F 30.1 in WNW 0.9 mph 4 mph 70% 0 in 95 W/m2
08:20 53.8 °F 44.2 °F 30.1 in WNW 0.9 mph 3 mph 70% 0 in 91 W/m2
08:25 54 °F 43.7 °F 30.2 in NW 0.9 mph 5 mph 68% 0 in 91 W/m2
08:30 54.1 °F 43.3 °F 30.2 in NW 2 mph 8 mph 67% 0 in 69 W/m2
08:35 54.1 °F 43.3 °F 30.2 in West 2 mph 8 mph 67% 0 in 53 W/m2
08:40 54.5 °F 44.2 °F 30.2 in West 4 mph 5 mph 68% 0 in 58 W/m2
08:45 54.9 °F 44.1 °F 30.2 in WNW 4 mph 6 mph 67% 0 in 62 W/m2
08:50 55.2 °F 43.7 °F 30.2 in WNW 2 mph 8 mph 65% 0 in 65 W/m2
08:55 55.8 °F 44.6 °F 30.2 in WNW 4 mph 4 mph 66% 0 in 58 W/m2
09:00 55.9 °F 44.4 °F 30.2 in NW 2.9 mph 8 mph 65% 0 in 65 W/m2
09:05 56.1 °F 44.6 °F 30.2 in WNW 2 mph 4 mph 65% 0 in 91 W/m2
09:10 56.3 °F 43.9 °F 30.2 in WNW 2.9 mph 7 mph 63% 0 in 135 W/m2
09:15 56.3 °F 44.2 °F 30.2 in WNW 2.9 mph 4 mph 64% 0 in 104 W/m2
09:20 56.5 °F 44.1 °F 30.2 in NW 4.9 mph 6 mph 63% 0 in 69 W/m2
09:25 56.8 °F 44.4 °F 30.2 in NNW 4 mph 5 mph 63% 0 in 54 W/m2
09:30 57.6 °F 43.7 °F 30.2 in WNW 2 mph 8 mph 60% 0 in 53 W/m2
09:35 57.9 °F 44.1 °F 30.2 in WSW 4 mph 6 mph 60% 0 in 53 W/m2
09:40 58.3 °F 44.1 °F 30.2 in NW 2.9 mph 7 mph 59% 0 in 53 W/m2
09:45 58.6 °F 44.4 °F 30.2 in WNW 4 mph 4 mph 59% 0 in 54 W/m2
09:50 59 °F 44.2 °F 30.2 in WNW 4.9 mph 7 mph 58% 0 in 53 W/m2
09:55 59.2 °F 44.4 °F 30.2 in NW 2.9 mph 6 mph 58% 0 in 56 W/m2
10:00 59.4 °F 44.6 °F 30.2 in West 8.1 mph 9 mph 58% 0 in 265 W/m2
10:05 59.4 °F 44.6 °F 30.2 in NE 2.9 mph 9 mph 58% 0 in 577 W/m2
10:10 59.5 °F 44.8 °F 30.2 in SW 4 mph 6 mph 58% 0 in 592 W/m2
10:15 59.9 °F 45.1 °F 30.2 in West 8.1 mph 10 mph 58% 0 in 606 W/m2
10:20 59.7 °F 43.5 °F 30.2 in WSW 2.9 mph 10 mph 55% 0 in 619 W/m2
10:25 59.7 °F 44.1 °F 30.2 in WNW 2 mph 8 mph 56% 0 in 635 W/m2
10:30 60.1 °F 43.3 °F 30.2 in WSW 6.9 mph 10 mph 54% 0 in 649 W/m2
10:35 60.4 °F 43.2 °F 30.2 in WNW 6 mph 8 mph 53% 0 in 664 W/m2
10:40 60.3 °F 44.1 °F 30.2 in NW 6 mph 8 mph 55% 0 in 677 W/m2
10:45 60.4 °F 44.2 °F 30.2 in North 4.9 mph 9 mph 55% 0 in 687 W/m2
10:50 60.6 °F 44.4 °F 30.2 in West 2.9 mph 11 mph 55% 0 in 698 W/m2
10:55 61.2 °F 44.8 °F 30.2 in WSW 4 mph 8 mph 55% 0 in 710 W/m2
11:00 61.5 °F 44.8 °F 30.2 in NNW 2 mph 6 mph 54% 0 in 717 W/m2
11:05 61.9 °F 45.1 °F 30.2 in West 6 mph 8 mph 54% 0 in 731 W/m2
11:10 61.9 °F 44.1 °F 30.2 in WNW 4 mph 9 mph 52% 0 in 742 W/m2
11:15 61.9 °F 43.5 °F 30.2 in West 2.9 mph 14 mph 51% 0 in 754 W/m2
11:20 61.5 °F 42.6 °F 30.2 in WNW 4 mph 14 mph 50% 0 in 768 W/m2
11:25 62.1 °F 43.7 °F 30.2 in SW 4 mph 9 mph 51% 0 in 779 W/m2
11:30 62.1 °F 43.7 °F 30.2 in NNW 10.1 mph 14 mph 51% 0 in 789 W/m2
11:35 61.9 °F 43.5 °F 30.2 in SSW 4.9 mph 14 mph 51% 0 in 802 W/m2
11:40 61.9 °F 43 °F 30.2 in West 8.9 mph 14 mph 50% 0 in 809 W/m2
11:45 62.2 °F 43.9 °F 30.2 in WNW 4 mph 14 mph 51% 0 in 816 W/m2
11:50 62.4 °F 43.5 °F 30.2 in West 8.1 mph 10 mph 50% 0 in 828 W/m2
11:56 62.8 °F 43.9 °F 30.2 in WNW 2.9 mph 11 mph 50% 0 in 833 W/m2
12:01 63.3 °F 45 °F 30.2 in West 10.1 mph 10 mph 51% 0 in 844 W/m2
12:06 63.1 °F 43.7 °F 30.2 in NW 8.1 mph 14 mph 49% 0 in 846 W/m2
12:11 63.7 °F 44.2 °F 30.2 in WNW 4.9 mph 10 mph 49% 0 in 849 W/m2
12:16 63.7 °F 44.2 °F 30.2 in WNW 4.9 mph 9 mph 49% 0 in 861 W/m2
12:21 63.9 °F 44.2 °F 30.2 in SW 4 mph 12 mph 49% 0 in 868 W/m2
12:26 64 °F 43.9 °F 30.2 in WNW 6.9 mph 10 mph 48% 0 in 874 W/m2
12:31 64.4 °F 44.2 °F 30.2 in NW 8.1 mph 11 mph 48% 0 in 877 W/m2
12:36 64 °F 43.9 °F 30.2 in West 6.9 mph 16 mph 48% 0 in 886 W/m2
12:41 64 °F 43.9 °F 30.2 in North 2.9 mph 10 mph 48% 0 in 888 W/m2
12:46 64.2 °F 44.1 °F 30.2 in WNW 6 mph 16 mph 48% 0 in 891 W/m2
12:51 64.2 °F 44.6 °F 30.2 in WNW 8.9 mph 10 mph 49% 0 in 889 W/m2
12:56 64.4 °F 44.8 °F 30.2 in NW 4.9 mph 10 mph 49% 0 in 893 W/m2
13:01 64.8 °F 45.1 °F 30.2 in WNW 4.9 mph 11 mph 49% 0 in 891 W/m2
13:06 64.9 °F 43.7 °F 30.2 in West 11 mph 14 mph 46% 0 in 900 W/m2
13:11 64.8 °F 44.1 °F 30.2 in NW 6.9 mph 9 mph 47% 0 in 896 W/m2
13:16 65.1 °F 45 °F 30.1 in West 14 mph 14 mph 48% 0 in 896 W/m2
13:21 65.3 °F 44.6 °F 30.1 in WNW 6.9 mph 11 mph 47% 0 in 898 W/m2
13:26 65.5 °F 44.8 °F 30.1 in NW 2.9 mph 9 mph 47% 0 in 902 W/m2
13:31 65.8 °F 45 °F 30.1 in West 6.9 mph 13 mph 47% 0 in 898 W/m2
13:36 65.5 °F 45.3 °F 30.1 in NNW 6 mph 10 mph 48% 0 in 900 W/m2
13:41 65.7 °F 45.5 °F 30.1 in West 10.1 mph 11 mph 48% 0 in 902 W/m2
13:46 65.7 °F 43.7 °F 30.1 in NW 8.1 mph 10 mph 45% 0 in 904 W/m2
13:51 65.7 °F 44.2 °F 30.1 in West 2 mph 10 mph 46% 0 in 902 W/m2
13:56 65.8 °F 44.4 °F 30.1 in WNW 10.1 mph 10 mph 46% 0 in 902 W/m2
14:01 65.8 °F 43.9 °F 30.1 in West 2.9 mph 9 mph 45% 0 in 902 W/m2
14:06 65.8 °F 43.9 °F 30.1 in NNW 8.9 mph 10 mph 45% 0 in 898 W/m2
14:11 66.2 °F 44.2 °F 30.1 in WSW 11 mph 12 mph 45% 0 in 896 W/m2
14:16 66.4 °F 45 °F 30.1 in WSW 11 mph 11 mph 46% 0 in 898 W/m2
14:21 66.9 °F 44.2 °F 30.1 in NW 8.1 mph 11 mph 44% 0 in 896 W/m2
14:26 66.7 °F 45.3 °F 30.1 in SW 4.9 mph 8 mph 46% 0 in 893 W/m2
14:31 66.7 °F 45.3 °F 30.1 in WSW 4.9 mph 11 mph 46% 0 in 895 W/m2
14:36 66.9 °F 45.5 °F 30.1 in North 8.1 mph 11 mph 46% 0 in 893 W/m2
14:41 66.9 °F 45 °F 30.1 in NW 4 mph 12 mph 45% 0 in 893 W/m2
14:46 66.7 °F 44.8 °F 30.1 in West 2.9 mph 11 mph 45% 0 in 888 W/m2
14:51 67.1 °F 45.7 °F 30.1 in WSW 8.1 mph 14 mph 46% 0 in 886 W/m2
14:56 67.3 °F 46.9 °F 30.1 in WSW 2 mph 4 mph 48% 0 in 877 W/m2
15:01 67.8 °F 46.9 °F 30.1 in West 6 mph 10 mph 47% 0 in 872 W/m2
15:06 68 °F 46.4 °F 30.1 in NNW 8.1 mph 9 mph 46% 0 in 872 W/m2
15:11 68 °F 45.9 °F 30.1 in WNW 6.9 mph 14 mph 45% 0 in 865 W/m2
15:16 67.8 °F 46.2 °F 30.1 in WNW 4 mph 5 mph 46% 0 in 856 W/m2
15:21 68.4 °F 46.2 °F 30.1 in West 2.9 mph 14 mph 45% 0 in 849 W/m2
15:26 68.7 °F 45.3 °F 30.1 in WNW 11 mph 12 mph 43% 0 in 842 W/m2
15:31 68.7 °F 45.3 °F 30.1 in NNW 8.9 mph 9 mph 43% 0 in 837 W/m2
15:36 68.2 °F 45.5 °F 30.1 in WNW 6.9 mph 12 mph 44% 0 in 826 W/m2
15:41 68.2 °F 46.6 °F 30.1 in WNW 4 mph 6 mph 46% 0 in 821 W/m2
15:46 68.9 °F 45.5 °F 30.1 in NW 6.9 mph 16 mph 43% 0 in 812 W/m2
15:51 68.7 °F 45.3 °F 30.1 in WSW 4 mph 10 mph 43% 0 in 800 W/m2
15:56 69.1 °F 46.2 °F 30.1 in WNW 6.9 mph 16 mph 44% 0 in 788 W/m2
16:01 69.1 °F 45.7 °F 30.1 in WSW 6.9 mph 10 mph 43% 0 in 780 W/m2
16:06 69.1 °F 46.2 °F 30.1 in West 11 mph 12 mph 44% 0 in 768 W/m2
16:11 68.5 °F 45.7 °F 30.1 in WNW 4 mph 11 mph 44% 0 in 761 W/m2
16:16 68.7 °F 45.3 °F 30.1 in WSW 6 mph 7 mph 43% 0 in 751 W/m2
16:21 68.9 °F 46 °F 30.1 in WNW 11 mph 11 mph 44% 0 in 738 W/m2
16:26 69.1 °F 46.2 °F 30.1 in WSW 4.9 mph 9 mph 44% 0 in 733 W/m2
16:31 69.1 °F 46.2 °F 30.1 in West 8.9 mph 9 mph 44% 0 in 717 W/m2
16:36 69.1 °F 46.8 °F 30.1 in NNW 4 mph 12 mph 45% 0 in 708 W/m2
16:41 69.1 °F 46.2 °F 30.1 in West 6.9 mph 11 mph 44% 0 in 705 W/m2
16:46 69.3 °F 46.4 °F 30.1 in NW 4.9 mph 12 mph 44% 0 in 693 W/m2
16:51 69.1 °F 46.8 °F 30.1 in WNW 4 mph 7 mph 45% 0 in 679 W/m2
16:56 69.4 °F 46.6 °F 30.1 in West 6 mph 7 mph 44% 0 in 666 W/m2
17:01 69.4 °F 46 °F 30.1 in WNW 4.9 mph 11 mph 43% 0 in 659 W/m2
17:06 69.6 °F 46.2 °F 30.1 in WSW 4 mph 7 mph 43% 0 in 647 W/m2
17:11 69.6 °F 45.5 °F 30.1 in SW 6.9 mph 9 mph 42% 0 in 629 W/m2
17:16 69.3 °F 46.4 °F 30.1 in West 4 mph 9 mph 44% 0 in 617 W/m2
17:21 69.3 °F 45.9 °F 30.1 in WSW 2.9 mph 10 mph 43% 0 in 606 W/m2
17:26 69.3 °F 46.4 °F 30.1 in NW 4.9 mph 8 mph 44% 0 in 591 W/m2
17:31 69.4 °F 47.1 °F 30.1 in WSW 0.9 mph 10 mph 45% 0 in 577 W/m2
17:41 70 °F 47.7 °F 30.1 in WSW 8.1 mph 8 mph 45% 0 in 559 W/m2
17:46 70 °F 47.7 °F 30.1 in SSW 4 mph 4 mph 45% 0 in 538 W/m2
17:51 70 °F 46.4 °F 30.1 in WSW 2 mph 8 mph 43% 0 in 522 W/m2
17:56 70 °F 47.1 °F 30.1 in West 2 mph 8 mph 44% 0 in 506 W/m2
18:01 70 °F 47.7 °F 30.1 in WNW 8.1 mph 8 mph 45% 0 in 494 W/m2
18:06 69.8 °F 46.9 °F 30.1 in WSW 2.9 mph 11 mph 44% 0 in 476 W/m2
18:11 69.4 °F 47.1 °F 30.1 in WNW 2.9 mph 8 mph 45% 0 in 464 W/m2
18:16 69.6 °F 47.3 °F 30.1 in NW 2.9 mph 11 mph 45% 0 in 450 W/m2
18:21 70 °F 47.1 °F 30.1 in West 6 mph 11 mph 44% 0 in 432 W/m2
18:26 70 °F 46.4 °F 30.1 in NW 8.9 mph 10 mph 43% 0 in 417 W/m2
18:31 69.4 °F 46 °F 30.1 in WNW 4.9 mph 11 mph 43% 0 in 403 W/m2
18:36 69.4 °F 46.6 °F 30.1 in WNW 4.9 mph 6 mph 44% 0 in 374 W/m2
18:41 69.4 °F 46.6 °F 30.1 in West 4 mph 8 mph 44% 0 in 62 W/m2
18:46 69.3 °F 46.4 °F 30.1 in WSW 8.9 mph 9 mph 44% 0 in 62 W/m2
18:51 69.3 °F 46.4 °F 30.1 in NW 4 mph 8 mph 44% 0 in 60 W/m2
18:56 69.1 °F 46.2 °F 30.1 in WNW 2.9 mph 9 mph 44% 0 in 60 W/m2
19:01 68.7 °F 45.9 °F 30.1 in WSW 4.9 mph 7 mph 44% 0 in 58 W/m2
19:06 68.9 °F 46.8 °F 30.1 in West 6 mph 6 mph 45% 0 in 56 W/m2
19:11 68.9 °F 46.8 °F 30.1 in West 6 mph 7 mph 45% 0 in 54 W/m2
19:16 68.7 °F 45.9 °F 30.1 in WSW 4.9 mph 7 mph 44% 0 in 53 W/m2
19:21 68.4 °F 46.2 °F 30.1 in WSW 4 mph 8 mph 45% 0 in 51 W/m2
19:26 68.2 °F 46 °F 30.1 in NW 2.9 mph 5 mph 45% 0 in 49 W/m2
19:31 68.2 °F 46.6 °F 30.1 in West 4 mph 6 mph 46% 0 in 47 W/m2
19:36 67.8 °F 46.2 °F 30.1 in West 2.9 mph 9 mph 46% 0 in 46 W/m2
19:41 67.8 °F 46.2 °F 30.1 in NNE 4.9 mph 9 mph 46% 0 in 44 W/m2
19:46 67.5 °F 46 °F 30.1 in WSW 4.9 mph 10 mph 46% 0 in 42 W/m2
19:51 67.5 °F 46.6 °F 30.1 in WSW 4 mph 4 mph 47% 0 in 39 W/m2
19:56 67.3 °F 45.9 °F 30.1 in WNW 2 mph 5 mph 46% 0 in 37 W/m2
20:01 66.9 °F 46 °F 30.1 in West 2.9 mph 4 mph 47% 0 in 62 W/m2
20:06 66.6 °F 45.7 °F 30.1 in WSW 2.9 mph 6 mph 47% 0 in 54 W/m2
20:11 66.2 °F 46.4 °F 30.1 in WSW 2.9 mph 4 mph 49% 0 in 30 W/m2
20:16 65.8 °F 46.8 °F 30.1 in West 2 mph 4 mph 50% 0 in 28 W/m2
20:21 65.5 °F 46.9 °F 30.1 in West 2.9 mph 4 mph 51% 0 in 26 W/m2
20:26 65.1 °F 47.1 °F 30.1 in WNW 2 mph 3 mph 52% 0 in 23 W/m2
20:31 64.8 °F 46.8 °F 30.1 in WNW 2.9 mph 4 mph 52% 0 in 19 W/m2
20:36 64.6 °F 47.1 °F 30.1 in West 2 mph 6 mph 53% 0 in 18 W/m2
20:41 64.2 °F 47.3 °F 30.1 in WNW 2 mph 4 mph 54% 0 in 16 W/m2
20:46 64 °F 47.1 °F 30.1 in West 2 mph 6 mph 54% 0 in 14 W/m2
20:51 63.7 °F 47.3 °F 30.1 in WSW 2.9 mph 3 mph 55% 0 in 12 W/m2
20:56 63.3 °F 46.9 °F 30.1 in WNW 2 mph 3 mph 55% 0 in 9 W/m2
21:01 63.1 °F 46.8 °F 30.1 in West 0.9 mph 4 mph 55% 0 in 7 W/m2
21:06 62.8 °F 46.9 °F 30.1 in West 2.9 mph 4 mph 56% 0 in 5 W/m2
21:11 62.6 °F 47.1 °F 30.1 in West 0.9 mph 3 mph 57% 0 in 0 W/m2
21:16 62.2 °F 46.8 °F 30.1 in West 0.9 mph 2 mph 57% 0 in 0 W/m2
21:22 62.1 °F 47.1 °F 30.1 in Calm   1 mph 58% 0 in 0 W/m2
21:27 61.9 °F 46.9 °F 30.1 in West 0.9 mph 1 mph 58% 0 in 0 W/m2
21:32 61.3 °F 46.9 °F 30.1 in West 0.9 mph 2 mph 59% 0 in 0 W/m2
21:37 61 °F 46.9 °F 30.1 in Calm   2 mph 60% 0 in 0 W/m2
21:42 60.6 °F 46.6 °F 30.1 in West 0.9 mph 2 mph 60% 0 in 0 W/m2
21:47 60.4 °F 46.9 °F 30.1 in Calm   2 mph 61% 0 in 0 W/m2
21:52 60.1 °F 46.6 °F 30.1 in West 2.9 mph 3 mph 61% 0 in 0 W/m2
21:57 59.7 °F 46.8 °F 30.1 in West 0.9 mph 2 mph 62% 0 in 0 W/m2
22:02 59.7 °F 47.1 °F 30.1 in Calm   1 mph 63% 0 in 0 W/m2
22:07 59.4 °F 46.8 °F 30.1 in Calm     63% 0 in 0 W/m2
22:12 59.2 °F 46.9 °F 30.1 in Calm     64% 0 in 0 W/m2
22:17 58.8 °F 46.6 °F 30.1 in Calm     64% 0 in 0 W/m2
22:22 58.5 °F 47.1 °F 30.1 in Calm     66% 0 in 0 W/m2
22:27 58.1 °F 46.8 °F 30.1 in Calm     66% 0 in 0 W/m2
22:32 57.9 °F 46.9 °F 30.1 in Calm     67% 0 in 0 W/m2
22:37 57.6 °F 46.8 °F 30.1 in Calm     67% 0 in 0 W/m2
22:42 57.2 °F 46.8 °F 30.1 in Calm     68% 0 in 0 W/m2
22:47 57 °F 46.6 °F 30.1 in Calm     68% 0 in 0 W/m2
22:52 56.8 °F 46.4 °F 30.1 in Calm     68% 0 in 0 W/m2
22:57 56.7 °F 46.6 °F 30.1 in Calm     69% 0 in 0 W/m2
23:02 56.5 °F 46.4 °F 30.1 in Calm     69% 0 in 0 W/m2
23:07 56.3 °F 46.2 °F 30.1 in Calm     69% 0 in 0 W/m2
23:12 56.1 °F 46.4 °F 30.1 in Calm   1 mph 70% 0 in 0 W/m2
23:17 55.9 °F 46.2 °F 30.1 in Calm   1 mph 70% 0 in 0 W/m2
23:22 55.8 °F 46 °F 30.1 in Calm     70% 0 in 0 W/m2
23:27 55.8 °F 46.6 °F 30.1 in Calm     71% 0 in 0 W/m2
23:32 55.4 °F 46.2 °F 30.1 in Calm     71% 0 in 0 W/m2
23:37 55.2 °F 46 °F 30.1 in Calm     71% 0 in 0 W/m2
23:42 55 °F 46.2 °F 30.1 in Calm   1 mph 72% 0 in 0 W/m2
23:52 54.7 °F 45.9 °F 30.1 in Calm   1 mph 72% 0 in 0 W/m2
23:57 54.3 °F 45.9 °F 30.1 in Calm     73% 0 in 0 W/m2
Juneau County Weather
Compliments of Weather Underground - 4 mb